User: anonymous   Login
Location: Caltech
(34.1382°N, 118.1253°W)
Time: 18:24:25
(UTC-07:00)
Language:

GPS 2-04 Rocket1 - Orbit

View from above orbital plane
View from above orbital plane
View from above satellite
View from above satellite

Ground track
Ground track

The orbit data is extracted from the following two-line orbital elements,

1 20303U 89085B   16122.15405854  .00003689  00000-0  13939-3 0  9996
2 20303  35.6298  88.0846 0112559 136.3621 224.6070 15.20904639437725
Epoch (UTC): 01 May 2016 03:41:50
Eccentricity: 0.0112559
inclination: 35.6298°
perigee height: 425 km
apogee height: 580 km
right ascension of ascending node: 88.0846°
argument of perigee: 136.3621°
revolutions per day: 15.20904639
mean anomaly at epoch: 224.6070°
orbit number at epoch: 43772

The dashed part of the orbit path shows where the satellite is in the earth's shadow,  

DLR